ASTRA 1G

Last updated on Jan. 26, 2020, 4:40 a.m. UTC

1 25071U 97076A   20025.78418662  .00000010  00000-0  00000+0 0  9995
2 25071   4.3075  74.0611 0003653 231.9210 164.0764  1.00273141 81130
UTC
Height (km)
Latitude
Longitude
Inclination
Orbital Period
UTC large
Height (km)
Speed (km/s)
/
Latitude / Longitude
Inclination (degrees)
Orbital Period (minutes)
Azimuth
Elevation
Range (km)
Doppler Factor
iOS Compass Heading
iOS Angle

Next 30 passes for location: Hong Kong

Rise time Rise Azimuth (degrees) Set time Set Azimuth (degrees) Duration Max altitude (degrees)

No matching passes for this satellites